GW0200 Weather Reports


time (UTC)temp
F
wind
direction
speed
knots
gust
knots
rain 1hr
in
rain 24hr
in
rain mn
in
humidity
%
barometer
mb
20260508054425 46 183 0.0 1.7 0.00 0.00 0.00 72 1007.2
20260508053919 46 188 0.0 0.9 0.00 0.00 0.00 72 1007.3
20260508053415 46 187 0.0 0.9 0.00 0.00 0.00 71 1007.3
20260508052908 46 187 0.0 0.9 0.00 0.00 0.00 71 1007.4
20260508052401 46 187 0.0 1.7 0.00 0.00 0.00 70 1007.5
20260508052126 47 187 0.9 2.6 0.00 0.00 0.00 70 1007.5
20260508051622 47 194 0.9 3.5 0.00 0.00 0.00 70 1007.5
20260508051114 46 227 0.9 3.5 0.00 0.00 0.00 69 1007.5
20260508050339 46 165 0.9 3.5 0.00 0.00 0.00 70 1007.5
20260508045831 46 165 0.9 3.5 0.00 0.00 0.00 70 1007.5
20260508045326 46 217 0.9 3.5 0.00 0.00 0.00 70 1007.6
20260508044819 45 171 0.9 3.5 0.00 0.00 0.00 71 1007.6
20260508044314 45 200 0.9 3.5 0.00 0.00 0.00 71 1007.6
20260508043808 44 192 0.0 1.7 0.00 0.00 0.00 72 1007.6
20260508043303 44 198 0.0 2.6 0.00 0.00 0.00 72 1007.6
20260508043258 44 225 0.0 2.6 0.00 0.00 0.00 72 1007.6
20260508042250 43 193 0.9 3.5 0.00 0.00 0.00 72 1007.6
20260508041744 43 173 0.9 3.5 0.00 0.00 0.00 71 1007.6
20260508041237 43 190 0.9 2.6 0.00 0.00 0.00 71 1007.6
20260508040731 43 186 0.9 2.6 0.00 0.00 0.00 72 1007.7
20260508040458 42 225 0.0 1.7 0.00 0.00 0.00 73 1007.6
20260508035720 42 219 0.0 2.6 0.00 0.00 0.00 74 1007.5
20260508035214 42 181 0.0 2.6 0.00 0.00 0.00 74 1007.5
20260508034709 42 150 0.0 0.9 0.00 0.00 0.00 75 1007.5
20260508034202 42 150 0.0 0.0 0.00 0.00 0.00 76 1007.6
20260508033926 42 150 0.0 0.0 0.00 0.00 0.00 76 1007.5
20260508033150 42 150 0.0 0.0 0.00 0.00 0.00 77 1007.5
20260508032644 42 150 0.0 0.0 0.00 0.00 0.00 77 1007.5
20260508032141 42 150 0.0 0.0 0.00 0.00 0.00 77 1007.5
20260508032136 42 150 0.0 0.9 0.00 0.00 0.00 77 1007.5
20260508031126 42 150 0.0 0.9 0.00 0.00 0.00 77 1007.4
20260508030622 42 150 0.0 0.9 0.00 0.00 0.00 77 1007.4
20260508030616 42 150 0.0 0.0 0.00 0.00 0.00 77 1007.5
20260508025608 43 150 0.0 0.0 0.00 0.00 0.00 77 1007.6
20260508025103 43 150 0.0 0.0 0.00 0.00 0.00 76 1007.6
20260508024556 43 150 0.0 0.0 0.00 0.00 0.00 75 1007.5
20260508024050 43 150 0.0 0.0 0.00 0.00 0.00 75 1007.5
20260508023543 43 150 0.0 0.0 0.00 0.00 0.00 75 1007.5
20260508023309 43 150 0.0 0.0 0.00 0.00 0.00 74 1007.5
20260508022532 44 150 0.0 0.0 0.00 0.00 0.00 73 1007.6
20260508022026 44 150 0.0 0.0 0.00 0.00 0.00 72 1007.5
20260508021519 44 150 0.0 0.0 0.00 0.00 0.00 72 1007.5
20260508021013 44 150 0.0 0.0 0.00 0.00 0.00 71 1007.5
20260508020740 44 150 0.0 0.0 0.00 0.00 0.00 70 1007.4
20260508020005 45 150 0.0 0.0 0.00 0.00 0.00 69 1007.4
20260508015728 45 150 0.0 0.0 0.00 0.00 0.00 69 1007.4
20260508014952 45 150 0.0 0.0 0.00 0.00 0.00 68 1007.4
20260508014443 45 150 0.0 0.0 0.00 0.00 0.00 67 1007.3
20260508013937 46 150 0.0 0.0 0.00 0.00 0.00 66 1007.3
20260508013431 46 150 0.0 0.0 0.00 0.00 0.00 63 1007.3
20260508012926 46 150 0.0 0.0 0.00 0.00 0.00 61 1007.3
20260508012921 47 150 0.0 1.7 0.00 0.00 0.00 60 1007.3
20260508011913 47 150 0.0 1.7 0.00 0.00 0.00 59 1007.3
20260508011638 48 161 0.0 0.0 0.00 0.00 0.00 58 1007.3
20260508010902 48 161 0.0 0.9 0.00 0.00 0.00 57 1007.2
20260508010626 49 161 0.0 0.9 0.00 0.00 0.00 56 1007.2
20260508005851 49 162 0.0 1.7 0.00 0.00 0.00 55 1007.2
20260508005845 49 162 0.0 1.7 0.00 0.00 0.00 53 1007.1
20260508004837 49 233 0.0 0.9 0.00 0.00 0.00 53 1007.2
20260508004602 50 264 0.9 3.5 0.00 0.00 0.00 52 1007.2
20260508003825 50 307 0.9 4.3 0.00 0.00 0.00 52 1007.2
20260508003320 50 204 1.7 4.3 0.00 0.00 0.00 51 1007.1
20260508002814 50 243 0.9 4.3 0.00 0.00 0.00 52 1007.1
20260508002307 50 265 0.9 6.1 0.00 0.00 0.00 51 1007.1
20260508001802 51 220 0.9 6.1 0.00 0.00 0.00 51 1007.1
20260508001528 51 296 0.9 4.3 0.00 0.00 0.00 51 1007.0
20260508001021 51 288 1.7 6.1 0.00 0.00 0.00 50 1006.9
20260508000514 51 244 1.7 7.0 0.00 0.00 0.00 49 1006.9
20260508000008 51 288 1.7 7.0 0.00 0.00 0.00 49 1006.9
20260507235231 51 345 1.7 7.0 0.00 0.00 0.00 48 1006.9
20260507234727 52 63 1.7 8.7 0.00 0.00 0.00 49 1006.9
20260507234219 52 347 1.7 8.7 0.00 0.00 0.00 48 1006.8
20260507233944 52 269 1.7 7.0 0.00 0.00 0.00 48 1006.8
20260507233208 53 315 1.7 7.8 0.00 0.00 0.00 48 1006.9
20260507232705 53 355 1.7 7.8 0.00 0.00 0.00 46 1006.9
20260507232205 53 355 2.6 13.9 0.00 0.00 0.00 47 1006.9
20260507231705 52 323 2.6 13.9 0.00 0.00 0.00 46 1006.9
20260507231206 52 128 2.6 8.7 0.00 0.00 0.00 47 1006.9
20260507230705 52 259 3.5 9.6 0.00 0.00 0.00 47 1007.0
20260507230435 53 0 3.5 9.6 0.00 0.00 0.00 46 1007.0
20260507225705 53 291 3.5 13.9 0.00 0.00 0.00 47 1007.0
20260507225208 53 327 4.3 13.9 0.00 0.00 0.00 45 1007.0
20260507224713 53 160 2.6 10.4 0.00 0.00 0.00 47 1007.0
20260507224705 53 313 3.5 8.7 0.00 0.00 0.00 45 1006.9
20260507223706 53 355 3.5 10.4 0.00 0.00 0.00 46 1007.0
20260507223206 53 237 3.5 10.4 0.00 0.00 0.00 44 1007.0
20260507222706 54 108 4.3 12.2 0.00 0.00 0.00 43 1007.0
20260507222204 54 273 3.5 12.2 0.00 0.00 0.00 43 1007.0
20260507221710 54 299 2.6 10.4 0.00 0.00 0.00 44 1006.9
20260507221705 54 355 3.5 10.4 0.00 0.00 0.00 45 1007.0
20260507220932 54 304 2.6 11.3 0.00 0.00 0.00 47 1007.0
20260507220200 54 204 4.3 10.4 0.00 0.00 0.00 45 1006.9
20260507220153 54 101 4.3 11.3 0.00 0.00 0.00 45 1006.9
20260507215152 54 0 2.6 10.4 0.00 0.00 0.00 46 1006.8
20260507214652 54 306 2.6 11.3 0.00 0.00 0.00 48 1006.7
20260507214153 54 62 3.5 11.3 0.00 0.00 0.00 50 1006.7
20260507213659 54 345 3.5 14.8 0.00 0.00 0.00 53 1006.8
20260507213652 54 192 3.5 12.2 0.00 0.00 0.00 52 1006.8
20260507212653 54 350 4.3 14.8 0.00 0.00 0.00 51 1006.8
20260507212153 54 241 4.3 12.2 0.00 0.00 0.00 51 1006.8
20260507211654 54 16 3.5 11.3 0.00 0.00 0.00 53 1006.7
20260507211148 53 200 2.6 7.8 0.00 0.00 0.00 55 1006.5
20260507210649 53 324 2.6 8.7 0.00 0.00 0.00 57 1006.5
20260507210149 52 88 3.5 8.7 0.00 0.00 0.00 56 1006.4
20260507205650 52 321 2.6 8.7 0.00 0.00 0.00 57 1006.3
20260507205149 51 324 2.6 9.6 0.00 0.00 0.00 58 1006.3
20260507204649 51 348 3.5 9.6 0.00 0.00 0.00 58 1006.3
20260507204150 52 34 3.5 8.7 0.00 0.00 0.00 59 1006.4
20260507203649 52 27 3.5 8.7 0.00 0.00 0.00 57 1006.4
20260507203150 52 347 3.5 10.4 0.00 0.00 0.00 57 1006.4
20260507202645 52 189 3.5 10.4 0.00 0.00 0.00 56 1006.4
20260507202145 52 325 3.5 8.7 0.00 0.00 0.00 56 1006.6
20260507201644 52 254 4.3 12.2 0.00 0.00 0.00 57 1006.4
20260507201144 52 325 4.3 12.2 0.00 0.00 0.00 54 1006.3
20260507200644 53 311 3.5 10.4 0.00 0.00 0.00 53 1006.3
20260507200144 54 298 3.5 10.4 0.00 0.00 0.00 53 1006.4
20260507195644 54 313 3.5 10.4 0.00 0.00 0.00 52 1006.4
20260507195144 54 211 3.5 10.4 0.00 0.00 0.00 51 1006.5
20260507194919 55 10 2.6 7.8 0.00 0.00 0.00 53 1006.6
20260507194417 54 187 2.6 7.8 0.00 0.00 0.00 53 1006.6
20260507193642 54 355 2.6 9.6 0.00 0.00 0.00 53 1006.6
20260507193415 54 164 3.5 11.3 0.00 0.00 0.00 51 1006.7
20260507192643 54 0 3.5 11.3 0.00 0.00 0.00 51 1006.7
20260507192144 54 348 3.5 8.7 0.00 0.00 0.00 51 1006.6
20260507191640 55 319 2.6 8.7 0.00 0.00 0.00 51 1006.7
20260507191141 55 9 2.6 9.6 0.00 0.00 0.00 50 1006.8
20260507190640 55 52 3.5 9.6 0.00 0.00 0.00 52 1006.9
20260507190138 55 286 3.5 8.7 0.00 0.00 0.00 50 1006.9
20260507185909 55 355 3.5 8.7 0.00 0.00 0.00 51 1006.8
20260507185138 55 18 3.5 9.6 0.00 0.00 0.00 49 1006.9
20260507184909 54 318 3.5 9.6 0.00 0.00 0.00 49 1006.8
20260507184137 54 14 2.6 7.8 0.00 0.00 0.00 48 1006.9
20260507183634 54 0 2.6 7.0 0.00 0.00 0.00 47 1006.9
20260507183132 54 276 3.5 9.6 0.00 0.00 0.00 48 1006.9
20260507182632 54 256 3.5 9.6 0.00 0.00 0.00 45 1007.0
20260507182132 54 293 3.5 8.7 0.00 0.00 0.00 45 1007.0
20260507181630 54 323 4.3 8.7 0.00 0.00 0.00 49 1006.9
20260507181401 54 0 4.3 12.2 0.00 0.00 0.00 46 1006.9
20260507180630 54 55 3.5 12.2 0.00 0.00 0.00 47 1007.0
20260507180133 54 325 3.5 9.6 0.00 0.00 0.00 47 1007.0
20260507175629 54 101 3.5 11.3 0.00 0.00 0.00 46 1007.0
20260507175132 54 43 3.5 11.3 0.00 0.00 0.00 46 1007.0
20260507174629 54 280 3.5 10.4 0.00 0.00 0.00 48 1007.0
20260507174130 54 31 3.5 13.0 0.00 0.00 0.00 46 1007.1
20260507173628 54 294 3.5 13.0 0.00 0.00 0.00 50 1007.0
20260507173128 54 292 3.5 9.6 0.00 0.00 0.00 49 1007.0
20260507172629 54 16 3.5 10.4 0.00 0.00 0.00 49 1007.1
20260507172128 55 254 2.6 10.4 0.00 0.00 0.00 50 1007.1
20260507171622 55 180 2.6 8.7 0.00 0.00 0.00 55 1007.1
20260507171115 55 336 2.6 7.8 0.00 0.00 0.00 53 1007.1
20260507170608 54 290 2.6 7.8 0.00 0.00 0.00 53 1007.1
20260507165557 54 221 3.5 8.7 0.00 0.00 0.00 57 1007.0
20260507165050 54 240 2.6 9.6 0.00 0.00 0.00 58 1007.1
20260507164546 53 242 3.5 11.3 0.00 0.00 0.00 56 1007.1
20260507164039 54 261 3.5 11.3 0.00 0.00 0.00 53 1007.1
20260507163533 54 351 2.6 7.0 0.00 0.00 0.00 52 1007.0
20260507163026 54 229 2.6 8.7 0.00 0.00 0.00 51 1007.1
20260507162520 54 281 3.5 10.4 0.00 0.00 0.00 49 1007.1
20260507162245 54 86 3.5 10.4 0.00 0.00 0.00 53 1007.0
20260507161509 54 9 3.5 10.4 0.00 0.00 0.00 51 1007.0
20260507161504 54 276 2.6 8.7 0.00 0.00 0.00 55 1007.0
20260507160456 54 355 2.6 8.7 0.00 0.00 0.00 55 1007.0
20260507155951 54 290 2.6 8.7 0.00 0.00 0.00 53 1007.0
20260507155445 54 342 2.6 8.7 0.00 0.00 0.00 55 1007.0
20260507154941 53 236 2.6 6.1 0.00 0.00 0.00 58 1007.1
20260507154936 53 5 2.6 9.6 0.00 0.00 0.00 55 1007.1
20260507153927 53 150 2.6 9.6 0.00 0.00 0.00 56 1007.2
20260507153420 53 0 2.6 7.0 0.00 0.00 0.00 57 1007.2
20260507152916 53 34 2.6 8.7 0.00 0.00 0.00 54 1007.1
20260507152408 53 334 3.5 8.7 0.00 0.00 0.00 53 1007.1
20260507151902 53 332 2.6 8.7 0.00 0.00 0.00 55 1007.1
20260507151357 53 320 1.7 6.1 0.00 0.00 0.00 58 1007.2
20260507150851 53 277 1.7 8.7 0.00 0.00 0.00 56 1007.2
20260507150615 53 308 2.6 8.7 0.00 0.00 0.00 56 1007.1
20260507145838 53 281 2.6 7.8 0.00 0.00 0.00 56 1007.1
20260507145559 54 331 1.7 5.2 0.00 0.00 0.00 56 1007.1
20260507145332 54 0 2.6 7.8 0.00 0.00 0.00 55 1007.1
20260507144320 53 315 1.7 5.2 0.00 0.00 0.00 59 1007.1
20260507143814 53 191 1.7 7.0 0.00 0.00 0.00 55 1007.1
20260507143308 53 295 1.7 7.0 0.00 0.00 0.00 57 1007.1
20260507142803 52 15 2.6 5.2 0.00 0.00 0.00 61 1007.1
20260507142257 52 176 2.6 6.1 0.00 0.00 0.00 59 1007.2
20260507141752 52 290 2.6 6.1 0.00 0.00 0.00 59 1007.3
20260507141245 52 301 1.7 6.1 0.00 0.00 0.00 62 1007.3
20260507140739 52 5 0.9 5.2 0.00 0.00 0.00 65 1007.3
20260507140232 51 287 0.9 5.2 0.00 0.00 0.00 67 1007.3
20260507135958 51 334 0.9 5.2 0.00 0.00 0.00 65 1007.5
20260507135221 50 351 0.9 4.3 0.00 0.00 0.00 69 1007.5
20260507134715 50 150 1.7 4.3 0.00 0.00 0.00 68 1007.4
20260507134208 50 5 0.9 3.5 0.00 0.00 0.00 68 1007.6
20260507133935 50 291 1.7 3.5 0.00 0.00 0.00 69 1007.6
20260507133156 49 161 1.7 3.5 0.00 0.00 0.00 70 1007.6
20260507132651 49 215 1.7 4.3 0.00 0.00 0.00 70 1007.6
20260507132145 49 144 1.7 4.3 0.00 0.00 0.00 70 1007.7
20260507131909 49 199 0.9 3.5 0.00 0.00 0.00 71 1007.7
20260507131133 49 249 0.9 2.6 0.00 0.00 0.00 73 1007.6
20260507130626 48 319 1.7 3.5 0.00 0.00 0.00 72 1007.6
20260507130120 48 340 1.7 3.5 0.00 0.00 0.00 72 1007.6
20260507125615 48 355 1.7 3.5 0.00 0.00 0.00 72 1007.6
20260507125109 47 205 1.7 5.2 0.00 0.00 0.00 72 1007.6
20260507124834 47 182 0.9 5.2 0.00 0.00 0.00 73 1007.7
20260507124057 47 263 0.9 3.5 0.00 0.00 0.00 73 1007.7
20260507123555 47 273 0.9 2.6 0.00 0.00 0.00 74 1007.7
20260507123312 47 344 0.9 3.5 0.00 0.00 0.00 76 1007.7
20260507122534 46 188 1.7 4.3 0.00 0.00 0.00 76 1007.6
20260507122030 46 182 0.9 4.3 0.00 0.00 0.00 77 1007.7
20260507121523 46 207 0.9 3.5 0.00 0.00 0.00 77 1007.6
20260507121017 45 180 0.9 3.5 0.00 0.00 0.00 78 1007.7
20260507120743 45 145 0.0 2.6 0.00 0.00 0.00 79 1007.6
20260507120005 45 202 0.0 2.6 0.00 0.00 0.00 80 1007.6
20260507115505 44 180 0.0 2.6 0.00 0.00 0.00 80 1007.6
20260507115005 44 331 0.0 1.7 0.00 0.00 0.00 81 1007.5
20260507114735 44 331 0.0 1.7 0.00 0.00 0.00 82 1007.5
20260507114235 43 173 0.0 0.9 0.00 0.00 0.00 82 1007.5
20260507113504 43 173 0.0 0.9 0.00 0.00 0.00 83 1007.4
20260507113006 43 173 0.0 0.9 0.00 0.00 0.00 83 1007.4
20260507112503 43 142 0.0 2.6 0.00 0.00 0.00 84 1007.3
20260507112005 42 202 0.0 2.6 0.00 0.00 0.00 84 1007.3
20260507111509 42 202 0.0 0.0 0.00 0.00 0.00 85 1007.4
20260507111236 42 202 0.0 0.0 0.00 0.00 0.00 85 1007.3
20260507110503 42 202 0.0 0.0 0.00 0.00 0.00 85 1007.3
20260507110005 42 202 0.0 0.0 0.00 0.00 0.00 86 1007.2
20260507105504 42 202 0.0 0.0 0.00 0.00 0.00 85 1007.1
20260507105004 41 202 0.0 0.0 0.00 0.00 0.00 86 1007.1
20260507104504 41 202 0.0 0.0 0.00 0.00 0.00 86 1007.1
20260507104004 41 202 0.0 0.0 0.00 0.00 0.00 86 1007.0
20260507103729 41 202 0.0 0.0 0.00 0.00 0.00 86 1007.0
20260507102958 41 202 0.0 0.0 0.00 0.00 0.00 86 1007.0
20260507102731 41 202 0.0 0.0 0.00 0.00 0.00 86 1007.0
20260507101959 41 202 0.0 0.0 0.00 0.00 0.00 86 1006.9
20260507101456 41 202 0.0 0.0 0.00 0.00 0.00 86 1006.9
20260507100956 41 202 0.0 0.0 0.00 0.00 0.00 86 1007.0
20260507100728 41 202 0.0 0.0 0.00 0.00 0.00 86 1007.0
20260507100008 41 202 0.0 1.7 0.00 0.00 0.00 86 1007.0
20260507095956 41 202 0.0 0.0 0.00 0.00 0.00 86 1007.0
20260507094952 41 202 0.0 1.7 0.00 0.01 0.00 86 1007.0
20260507094454 41 135 0.0 0.9 0.00 0.01 0.00 86 1007.0
20260507093950 41 135 0.0 0.0 0.00 0.01 0.00 86 1007.0
20260507093724 41 135 0.0 0.0 0.00 0.02 0.00 85 1006.9
20260507092948 41 135 0.0 0.0 0.00 0.02 0.00 85 1006.9
20260507092720 41 135 0.0 0.0 0.00 0.03 0.00 85 1007.0
20260507091949 41 135 0.0 1.7 0.00 0.03 0.00 86 1007.0
20260507091445 41 135 0.0 1.7 0.00 0.04 0.00 86 1007.0
20260507090946 41 171 0.0 0.9 0.00 0.04 0.00 86 1007.0
20260507090445 41 171 0.0 0.0 0.00 0.04 0.00 86 1007.1
20260507085946 41 171 0.0 0.0 0.00 0.04 0.00 87 1007.0
20260507085447 41 171 0.0 0.9 0.00 0.04 0.00 87 1007.0
20260507084947 41 171 0.0 1.7 0.00 0.04 0.00 87 1007.0
20260507084441 41 171 0.0 1.7 0.00 0.05 0.00 88 1007.1
20260507083941 41 111 0.0 0.0 0.00 0.05 0.00 88 1007.1
20260507083441 41 111 0.0 0.9 0.00 0.06 0.00 88 1007.2
20260507083212 41 111 0.0 0.9 0.00 0.06 0.00 88 1007.2
20260507082443 41 89 0.0 0.9 0.00 0.07 0.00 88 1007.2
20260507081942 41 121 0.0 0.9 0.00 0.08 0.00 88 1007.2
20260507081442 41 121 0.0 0.9 0.00 0.10 0.00 88 1007.2
20260507080942 41 219 0.0 1.7 0.00 0.11 0.00 87 1007.3
20260507080443 41 165 0.0 1.7 0.00 0.11 0.00 87 1007.2
20260507075942 41 223 0.0 0.0 0.00 0.12 0.00 87 1007.2
20260507075443 41 223 0.0 1.7 0.00 0.12 0.00 87 1007.2
20260507075213 41 223 0.0 1.7 0.00 0.13 0.00 87 1007.2
20260507074442 41 162 0.0 1.7 0.00 0.13 0.00 87 1007.2
20260507073948 41 130 0.0 1.7 0.00 0.14 0.00 87 1007.2
20260507073941 41 159 0.0 1.7 0.00 0.13 0.00 87 1007.2
20260507072942 41 130 0.0 1.7 0.00 0.15 0.00 88 1007.3
20260507072441 41 155 0.0 2.6 0.00 0.15 0.00 87 1007.2
20260507071940 41 155 0.0 2.6 0.00 0.16 0.00 88 1007.3
20260507071433 41 178 0.0 0.9 0.00 0.16 0.00 88 1007.3
20260507070927 41 161 0.0 1.7 0.00 0.16 0.00 88 1007.3
20260507070423 41 161 0.0 1.7 0.00 0.17 0.00 88 1007.4
20260507065916 40 142 0.0 1.7 0.00 0.17 0.00 87 1007.4
20260507065410 40 145 0.0 0.9 0.00 0.17 0.00 87 1007.4
20260507064904 40 145 0.0 0.9 0.00 0.17 0.00 87 1007.5
20260507064358 41 145 0.0 0.9 0.00 0.18 0.00 87 1007.5
20260507063852 41 132 0.0 0.0 0.00 0.18 0.00 87 1007.4
20260507063346 41 132 0.0 0.0 0.00 0.18 0.00 87 1007.5
20260507062840 41 117 0.0 0.0 0.00 0.18 0.00 87 1007.6
20260507062334 41 117 0.0 0.0 0.00 0.18 0.00 87 1007.8
20260507061835 41 117 0.0 0.0 0.00 0.19 0.00 87 1007.8
20260507061331 41 111 0.0 0.0 0.00 0.19 0.00 86 1007.8
20260507060832 41 111 0.0 0.0 0.00 0.19 0.00 86 1007.8
20260507060333 41 111 0.0 0.9 0.00 0.19 0.00 86 1007.8
20260507055833 41 140 0.0 0.9 0.00 0.20 0.00 86 1007.8
20260507055332 41 59 0.0 1.7 0.00 0.20 0.00 85 1007.8